Wind_Speed
33 36 35 34 35 33 32 32 30 29 29 27 26 26 27 27 25 23 22 21 21 20 20 20 18 17 16 15 16 15 14 13 11 9 10 11 12 13 14 14 14 14
35 38 37 35 36 35 34 34 33 32 31 30 27 25 25 27 27 25 24 23 23 21 20 21 20 19 19 18 18 17 16 15 13 11 11 12 13 13 14 14 14 15
39 39 38 38 37 37 36 35 34 33 32 31 30 28 25 25 26 28 27 26 26 23 21 21 21 20 20 20 19 19 18 17 16 14 13 13 13 14 15 15 15 16
41 40 40 39 38 37 37 35 35 35 34 32 32 31 29 26 25 27 29 28 27 26 24 22 21 20 20 20 20 20 20 19 18 16 16 15 14 14 15 16 16 16
43 42 41 40 40 39 38 37 37 36 35 34 32 32 32 30 28 27 29 29 28 28 27 25 23 22 21 21 21 21 21 21 20 19 19 17 16 15 16 17 18 18
44 43 43 42 41 41 40 40 39 37 36 35 33 32 32 32 32 31 30 29 29 29 28 26 25 24 22 22 22 23 23 22 22 22 20 18 18 18 17 18 19 19
46 45 44 43 43 42 42 41 40 39 37 35 33 33 32 31 32 33 33 32 30 30 29 28 28 27 25 24 24 24 24 24 24 25 23 21 21 20 19 19 20 20
47 46 45 44 44 43 43 42 41 40 38 36 34 33 33 32 32 33 34 34 33 31 30 30 30 29 28 26 25 25 26 25 25 26 26 25 25 22 20 19 20 21
48 47 46 45 44 44 43 42 41 40 39 38 36 34 34 34 34 34 34 35 35 33 33 32 31 31 30 28 27 28 27 27 26 27 27 28 27 25 22 21 20 20
49 48 47 46 45 45 44 42 40 39 39 40 39 35 33 34 35 34 34 36 36 35 35 34 33 33 32 30 28 28 29 29 28 28 29 29 28 27 25 24 23 22
49 49 49 48 47 45 44 42 39 36 36 39 41 39 34 32 35 36 35 36 37 36 36 36 36 35 35 33 30 28 29 30 30 30 30 30 29 29 28 27 27 26
49 50 49 48 48 46 43 41 38 35 34 35 39 41 37 33 34 37 37 37 37 37 37 37 37 37 37 36 34 31 30 31 31 31 31 32 31 30 30 30 29 29
48 49 49 48 48 46 44 41 39 37 35 33 34 38 39 35 33 36 38 38 38 38 38 38 38 38 39 38 37 36 34 33 33 32 33 33 33 32 32 31 32 31
47 46 46 46 46 46 45 43 41 38 36 35 33 34 38 37 34 34 36 39 39 38 38 38 39 40 41 40 40 39 38 36 35 35 34 35 35 35 34 33 33 33
45 44 44 45 46 46 46 45 44 41 39 37 35 35 36 36 35 34 34 37 40 39 39 39 40 41 42 43 42 41 40 39 38 38 37 36 37 37 36 35 34 32
46 44 43 44 45 46 46 45 45 45 43 40 39 38 36 36 36 35 34 35 38 40 40 40 41 43 44 44 44 43 42 42 41 41 40 39 39 39 39 38 36 34
48 46 45 44 45 46 46 45 45 46 45 43 41 41 39 38 38 37 36 34 35 39 41 41 42 44 44 44 44 44 44 43 43 44 43 43 42 42 41 41 39 37
49 48 47 46 46 46 47 46 45 46 46 45 45 45 43 41 40 41 41 38 36 37 41 43 42 42 44 44 44 44 44 44 44 44 45 45 44 44 44 43 42 40
47 48 48 47 47 47 47 46 46 46 47 48 48 47 46 45 44 45 45 44 41 38 39 43 44 44 43 43 43 43 42 42 43 44 45 46 46 45 45 44 44 43
46 46 46 46 46 46 46 46 46 46 47 48 47 47 47 48 48 47 47 47 46 43 41 41 43 45 45 44 43 43 42 42 42 43 45 46 46 46 45 45 46 45
45 45 44 44 44 44 44 44 45 45 46 46 46 46 47 48 48 48 48 47 47 47 45 43 43 45 46 47 46 44 44 43 43 44 45 46 46 46 46 46 46 46
45 44 43 43 42 41 41 41 42 44 44 44 43 43 44 45 46 47 47 47 47 47 47 47 46 45 46 48 47 45 44 44 45 45 46 47 47 48 47 47 48 48
43 42 42 42 41 40 40 39 40 41 42 42 42 42 40 39 40 42 43 44 45 46 47 48 46 45 47 48 48 46 45 45 46 46 47 48 49 49 50 50 50 49
40 40 41 40 40 39 38 38 38 39 40 40 41 41 38 35 33 35 37 40 42 43 44 45 45 46 47 47 48 47 46 45 46 47 48 49 49 50 51 52 52 50
37 38 39 39 39 38 38 37 37 37 37 38 38 39 38 36 33 33 34 36 38 40 40 41 42 43 44 45 46 46 46 45 45 47 49 50 51 51 52 53 52 48
36 36 37 36 36 36 35 35 35 35 35 35 35 35 34 34 33 32 32 32 32 33 34 37 40 41 42 43 44 44 44 44 45 47 49 50 52 52 52 54 51 44
Wind_Direction
218 224 226 225 226 226 225 227 227 228 228 226 225 229 232 233 228 221 220 228 232 229 227 228 226 225 223 223 224 222 224 231 232 226 219 219 222 220 215 212 209 206
221 225 227 226 227 227 227 228 228 230 233 230 225 225 230 235 234 229 221 222 231 233 229 229 229 228 228 230 230 227 224 230 231 222 223 224 220 221 221 217 216 212
225 226 226 226 226 228 228 228 230 231 233 233 230 226 226 231 235 236 232 227 231 235 232 230 231 230 233 232 230 229 226 228 230 221 222 228 222 222 225 221 220 221
225 225 226 226 226 228 229 229 230 232 233 233 233 231 227 227 230 235 238 235 234 236 235 233 232 229 230 230 227 228 227 229 232 226 222 228 226 222 225 225 221 223
225 225 226 226 227 228 229 230 231 232 234 233 233 233 231 229 227 230 237 237 236 237 237 236 235 231 229 229 226 226 226 227 230 229 225 226 232 229 224 226 225 222
226 226 226 226 227 227 228 231 232 232 233 234 233 233 233 233 231 230 233 235 235 236 235 234 234 233 229 228 227 226 227 228 228 231 228 223 232 236 227 226 231 229
226 227 227 227 228 228 228 230 232 233 233 233 233 233 232 232 234 233 233 234 236 235 235 233 233 234 232 229 229 228 229 229 229 233 233 228 231 234 229 226 232 237
226 227 227 227 227 228 228 229 231 233 233 232 232 234 234 232 233 236 235 235 235 235 235 234 232 234 235 233 232 233 233 232 230 234 237 236 235 233 228 226 229 238
226 227 227 227 226 227 228 228 228 231 232 233 232 232 235 235 234 235 237 236 235 235 237 236 233 234 235 234 235 237 238 235 233 234 237 239 240 237 232 227 227 235
226 227 227 227 226 226 227 227 226 228 232 234 233 231 231 235 236 235 236 237 236 235 236 238 236 236 235 234 234 237 240 238 235 235 238 241 244 243 238 233 231 236
226 226 227 227 226 225 226 226 223 223 228 233 235 232 228 230 236 236 235 237 237 235 235 237 238 238 238 235 233 234 238 240 238 237 240 242 244 245 243 240 238 240
225 226 226 227 227 226 225 224 222 219 222 227 233 234 229 225 231 237 237 236 237 236 235 235 237 239 240 238 235 234 236 240 240 239 241 243 244 245 245 245 244 243
225 225 226 226 228 227 224 223 221 219 218 220 227 233 231 224 224 233 239 238 237 237 236 236 236 238 240 240 238 237 237 239 241 241 241 243 244 245 245 246 247 247
225 225 226 226 226 228 226 224 222 219 218 217 219 227 232 229 222 225 235 240 240 238 238 237 237 237 239 240 240 240 239 240 242 242 242 243 244 245 245 244 244 246
226 226 226 226 225 226 228 227 224 222 220 218 217 221 227 230 226 222 227 237 242 242 240 239 239 239 239 240 240 240 241 242 243 244 243 244 245 246 245 244 240 240
227 227 227 227 226 226 228 228 226 225 224 221 220 221 224 228 229 224 221 228 239 243 243 240 240 241 240 241 241 242 242 243 244 245 245 245 245 246 246 245 241 237
226 227 227 228 227 227 228 229 227 226 226 224 223 223 225 227 229 229 225 223 229 239 245 244 241 242 243 243 243 243 244 245 246 247 247 247 247 247 246 246 244 240
226 227 228 228 228 228 228 229 229 228 227 226 226 228 229 228 229 232 233 229 224 230 241 246 245 243 243 244 244 245 245 246 247 248 249 249 249 248 248 247 247 244
226 228 229 229 230 230 230 230 230 230 230 229 229 231 232 231 232 235 238 238 233 228 233 242 246 246 244 244 244 246 246 246 247 248 250 251 251 251 250 250 249 247
227 229 230 230 231 231 231 232 232 233 233 232 232 232 233 234 236 238 239 241 240 235 232 236 242 245 247 246 245 245 246 246 246 247 249 251 253 253 252 252 251 251
228 230 230 230 231 232 233 234 235 235 235 234 232 234 236 238 239 241 241 242 243 241 238 237 239 243 247 249 248 246 246 246 246 246 247 249 251 253 253 253 253 252
228 228 229 230 232 234 235 236 236 237 237 235 233 233 237 240 242 243 243 243 244 245 245 243 242 243 247 250 251 250 248 248 247 246 246 247 248 250 252 253 253 252
227 228 229 231 232 234 236 237 236 237 238 237 236 234 233 236 239 242 243 244 245 247 248 249 247 246 248 251 252 252 250 249 249 248 247 246 246 247 249 250 252 250
228 229 230 232 234 235 236 236 236 236 237 237 238 236 232 230 231 236 242 245 247 249 250 251 251 250 251 252 253 254 252 250 249 249 249 249 248 247 248 248 250 249
228 231 232 233 234 234 235 235 235 236 237 238 239 239 237 234 230 232 237 242 248 251 250 250 251 252 253 254 253 253 253 252 251 249 249 250 250 249 248 248 248 247
228 231 232 233 234 234 235 236 238 238 238 240 241 241 240 237 232 230 233 237 242 245 246 248 252 254 254 254 255 254 254 253 251 249 249 250 250 250 249 248 247 244
Height
1525 1528 1530 1533 1535 1537 1540 1541 1543 1545 1546 1548 1549 1551 1552 1553 1555 1557 1558 1558 1560 1562 1563 1565 1566 1567 1569 1570 1570 1571 1572 1572 1572 1573 1573 1573 1574 1574 1574 1575 1576 1577
1522 1525 1527 1530 1532 1534 1536 1538 1540 1542 1544 1545 1547 1549 1550 1551 1552 1554 1556 1557 1558 1559 1561 1563 1564 1565 1567 1568 1569 1569 1570 1570 1571 1572 1572 1572 1572 1572 1573 1574 1574 1575
1519 1521 1524 1526 1528 1530 1533 1535 1537 1539 1541 1542 1544 1547 1548 1549 1550 1551 1553 1555 1556 1557 1559 1560 1561 1563 1564 1565 1567 1568 1568 1569 1569 1570 1571 1570 1571 1571 1571 1572 1573 1573
1515 1517 1520 1522 1525 1527 1530 1532 1534 1535 1538 1539 1541 1543 1545 1547 1548 1549 1550 1552 1554 1555 1556 1558 1559 1560 1562 1563 1564 1565 1566 1567 1567 1569 1569 1569 1569 1569 1570 1571 1571 1572
1511 1513 1516 1519 1522 1524 1526 1528 1530 1532 1534 1536 1538 1540 1542 1544 1545 1546 1548 1549 1551 1552 1554 1555 1556 1558 1559 1560 1562 1563 1564 1565 1565 1566 1567 1567 1567 1567 1568 1569 1569 1570
1507 1510 1512 1515 1518 1521 1522 1524 1526 1528 1531 1533 1535 1537 1539 1540 1542 1544 1545 1547 1548 1550 1551 1553 1554 1555 1557 1558 1559 1560 1561 1562 1563 1563 1564 1565 1565 1566 1566 1567 1567 1568
1502 1505 1508 1511 1514 1516 1519 1521 1523 1525 1527 1530 1532 1534 1536 1537 1539 1541 1543 1544 1546 1547 1548 1550 1551 1552 1554 1555 1556 1557 1559 1560 1560 1561 1562 1562 1563 1563 1564 1565 1565 1565
1498 1501 1504 1507 1510 1512 1515 1517 1519 1521 1524 1527 1528 1530 1532 1534 1536 1537 1539 1541 1543 1544 1545 1547 1548 1549 1551 1552 1553 1554 1556 1557 1558 1558 1559 1559 1560 1561 1562 1562 1563 1563
1494 1496 1499 1502 1505 1508 1510 1513 1516 1518 1520 1523 1525 1527 1528 1530 1532 1534 1536 1537 1539 1541 1542 1543 1545 1546 1548 1549 1550 1551 1552 1554 1555 1555 1556 1556 1557 1558 1559 1560 1560 1561
1489 1492 1495 1498 1501 1504 1506 1509 1512 1514 1516 1518 1521 1524 1525 1527 1529 1531 1532 1533 1535 1537 1538 1540 1541 1543 1544 1546 1547 1548 1549 1550 1551 1552 1553 1553 1554 1555 1556 1557 1557 1558
1484 1488 1491 1493 1497 1500 1502 1506 1509 1511 1513 1514 1516 1520 1522 1523 1525 1527 1528 1529 1531 1533 1535 1536 1538 1539 1541 1542 1544 1545 1546 1547 1548 1549 1550 1550 1551 1552 1553 1554 1554 1555
1479 1483 1486 1489 1492 1496 1499 1502 1505 1508 1510 1511 1513 1515 1519 1521 1521 1522 1524 1526 1527 1529 1531 1533 1534 1536 1537 1538 1540 1541 1542 1543 1544 1545 1546 1547 1548 1549 1550 1550 1551 1551
1474 1477 1481 1485 1488 1491 1495 1498 1501 1504 1506 1508 1509 1511 1514 1517 1518 1519 1520 1522 1523 1525 1527 1529 1530 1532 1533 1534 1536 1537 1538 1540 1541 1542 1543 1544 1545 1546 1547 1547 1547 1548
1470 1473 1477 1481 1484 1487 1491 1494 1497 1500 1502 1505 1506 1507 1509 1512 1515 1516 1516 1517 1519 1521 1523 1525 1526 1527 1528 1530 1531 1533 1535 1536 1537 1538 1539 1540 1541 1542 1543 1544 1544 1544
1466 1470 1473 1477 1480 1483 1486 1489 1492 1495 1498 1501 1503 1504 1506 1508 1511 1513 1513 1513 1515 1517 1519 1521 1522 1522 1523 1525 1527 1529 1531 1532 1533 1534 1535 1536 1536 1537 1539 1540 1540 1540
1463 1467 1470 1473 1476 1479 1481 1485 1488 1491 1494 1497 1499 1500 1502 1504 1506 1509 1510 1510 1511 1512 1515 1516 1517 1517 1518 1520 1522 1524 1527 1528 1529 1530 1531 1532 1532 1533 1534 1535 1536 1536
1459 1462 1466 1469 1472 1475 1477 1480 1484 1487 1489 1492 1494 1496 1498 1500 1502 1504 1506 1508 1508 1508 1509 1511 1512 1512 1514 1516 1518 1520 1522 1524 1524 1525 1526 1527 1527 1528 1529 1530 1531 1532
1456 1458 1461 1465 1467 1470 1473 1476 1480 1483 1485 1488 1490 1491 1494 1496 1498 1499 1501 1503 1504 1504 1504 1505 1506 1508 1509 1511 1514 1516 1518 1519 1520 1521 1521 1522 1523 1523 1524 1525 1526 1527
1453 1455 1458 1461 1463 1466 1470 1473 1476 1478 1480 1483 1485 1487 1489 1491 1493 1494 1496 1498 1500 1500 1500 1500 1501 1503 1505 1507 1509 1511 1513 1515 1516 1516 1516 1517 1518 1519 1519 1520 1521 1522
1449 1452 1455 1458 1460 1463 1466 1468 1471 1473 1475 1478 1481 1483 1484 1486 1488 1490 1491 1492 1494 1496 1496 1496 1497 1498 1499 1502 1504 1506 1508 1510 1511 1512 1512 1512 1512 1513 1514 1515 1515 1516
1445 1448 1451 1454 1457 1460 1462 1464 1467 1468 1471 1474 1476 1478 1479 1481 1483 1485 1486 1487 1489 1491 1492 1492 1492 1493 1494 1496 1499 1501 1503 1505 1507 1507 1507 1507 1507 1507 1508 1509 1509 1510
1440 1444 1447 1450 1453 1455 1458 1460 1462 1464 1466 1470 1472 1475 1476 1477 1479 1480 1482 1483 1484 1486 1487 1487 1488 1488 1489 1490 1492 1496 1498 1500 1500 1501 1502 1501 1502 1501 1502 1503 1503 1504
1438 1441 1443 1446 1448 1450 1452 1455 1457 1460 1463 1465 1468 1471 1472 1473 1474 1476 1477 1478 1479 1480 1481 1481 1483 1483 1484 1484 1486 1489 1491 1493 1494 1495 1495 1495 1496 1496 1496 1495 1496 1497
1435 1437 1439 1441 1443 1445 1448 1451 1454 1456 1459 1461 1463 1465 1468 1470 1471 1472 1472 1473 1474 1475 1475 1476 1477 1477 1478 1479 1480 1482 1484 1486 1487 1488 1488 1489 1489 1490 1490 1489 1489 1491
1432 1433 1436 1438 1440 1442 1445 1448 1450 1452 1454 1456 1458 1460 1463 1465 1467 1468 1468 1468 1469 1470 1470 1471 1472 1472 1472 1473 1474 1476 1478 1480 1481 1482 1482 1482 1483 1483 1484 1484 1484 1486
1429 1431 1433 1435 1437 1440 1442 1445 1447 1449 1451 1453 1454 1456 1458 1460 1462 1463 1464 1464 1465 1466 1466 1466 1466 1467 1467 1467 1468 1470 1471 1473 1475 1475 1475 1475 1476 1477 1478 1479 1480 1481